Location: Clover
(42.5131°N, 114.6874°W)
Time: 14:36:57
(UTC+00:00)

Vanguard 3 - All Passes

Search period start: 09 November 2024 00:00
Search period end: 19 November 2024 00:00
Orbit: 508 x 3221 km, 33.3° (Epoch: 09 November)

Date Brightness Start Highest point End Pass type
(mag) Time Alt. Az. Time Alt. Az. Time Alt. Az.
09 Nov - 00:40:07 10° WSW 00:49:23 42° S 00:54:52 10° ESE visible
09 Nov - 02:55:22 10° WSW 02:59:39 18° SSW 03:02:54 10° SSE visible
09 Nov - 18:52:46 10° S 19:03:48 20° SSE 19:12:32 10° ESE daylight
09 Nov - 21:03:07 10° SW 21:17:08 38° SSE 21:26:01 10° E daylight
09 Nov - 23:17:48 10° WSW 23:29:43 47° S 23:36:34 10° ESE daylight
10 Nov - 01:33:13 10° W 01:40:53 33° SSW 01:45:44 10° SE visible
10 Nov - 17:37:13 10° SSE 17:42:46 12° SE 17:47:53 10° ESE daylight
10 Nov - 19:42:01 10° SSW 19:56:13 31° SSE 20:06:15 10° E daylight
10 Nov - 21:55:19 10° WSW 22:09:27 47° S 22:17:52 10° E daylight
11 Nov - 00:10:54 10° WSW 00:21:35 45° SSW 00:27:48 10° ESE daylight
11 Nov - 02:26:42 10° WSW 02:32:00 20° SW 02:35:51 10° SSE visible
11 Nov - 18:22:25 10° S 18:35:04 23° SSE 18:45:12 10° ESE daylight
11 Nov - 20:33:11 10° SW 20:48:40 42° SSE 20:58:40 10° E daylight
11 Nov - 22:48:12 10° WSW 23:01:39 51° S 23:09:23 10° ESE daylight
12 Nov - 01:04:10 10° W 01:13:08 35° SSW 01:18:39 10° SE visible
12 Nov - 17:05:56 10° SSE 17:13:56 14° SE 17:21:13 10° ESE daylight
12 Nov - 19:11:58 10° SSW 19:27:29 34° SSE 19:38:44 10° E daylight
12 Nov - 21:25:29 10° WSW 21:41:06 50° S 21:50:31 10° E daylight
12 Nov - 23:41:27 10° W 23:53:38 48° SSW 00:00:37 10° ESE daylight
13 Nov - 01:57:47 10° W 02:04:15 22° SW 02:08:44 10° SSE visible
13 Nov - 17:52:17 10° SSW 18:06:08 25° SE 18:17:33 10° E daylight
13 Nov - 20:03:15 10° SW 20:19:58 45° SSE 20:31:08 10° E daylight
13 Nov - 22:18:29 10° WSW 22:33:24 54° S 22:42:05 10° ESE daylight
14 Nov - 00:34:52 10° W 00:45:14 38° SSW 00:51:28 10° SE visible
14 Nov - 02:54:00 10° SW 02:54:55 10° SW 02:55:48 10° SW visible
14 Nov - 16:35:22 10° SSE 16:44:55 16° SE 16:53:46 10° ESE daylight
14 Nov - 18:42:02 10° SSW 18:58:32 37° SSE 19:10:58 10° E daylight
14 Nov - 20:55:37 10° WSW 21:12:30 53° S 21:23:02 10° E daylight
14 Nov - 23:11:50 10° W 23:25:28 50° SSW 23:33:21 10° ESE daylight
15 Nov - 01:28:38 10° W 01:36:21 24° SW 01:41:34 10° SSE visible
15 Nov - 17:22:22 10° SSW 17:37:01 27° SE 17:49:36 10° E daylight
15 Nov - 19:33:23 10° SW 19:51:04 48° SSE 20:03:25 10° E daylight
15 Nov - 21:48:40 10° WSW 22:04:55 57° S 22:14:39 10° ESE daylight
16 Nov - 00:05:22 10° W 00:17:09 40° SSW 00:24:11 10° SE daylight
16 Nov - 02:24:09 10° WSW 02:26:59 12° SW 02:29:27 10° SSW visible
16 Nov - 16:05:16 10° S 16:15:46 17° SE 16:25:48 10° ESE daylight
16 Nov - 18:12:15 10° SSW 18:29:21 39° SSE 18:43:00 10° E daylight
16 Nov - 20:25:46 10° WSW 20:43:41 56° S 20:55:23 10° E daylight
16 Nov - 22:42:04 10° W 22:57:07 53° SSW 23:05:57 10° ESE daylight
17 Nov - 00:59:14 10° W 01:08:18 26° SW 01:14:17 10° SSE visible
17 Nov - 16:52:40 10° SSW 17:07:44 29° SE 17:21:22 10° E daylight
17 Nov - 19:03:38 10° SW 19:21:56 50° SSE 19:35:30 10° E daylight
17 Nov - 21:18:49 10° WSW 21:36:14 59° S 21:47:03 10° ESE daylight
17 Nov - 23:35:41 10° W 23:48:52 42° SSW 23:56:48 10° SE daylight
18 Nov - 01:54:35 10° WSW 01:58:56 14° SW 02:02:28 10° SSW visible
18 Nov - 15:35:31 10° S 15:46:30 19° SE 15:57:27 10° E daylight
18 Nov - 17:42:39 10° SW 18:00:01 41° SSE 18:14:48 10° E daylight
18 Nov - 19:55:59 10° WSW 20:14:38 58° S 20:27:33 10° E daylight
18 Nov - 22:12:14 10° W 22:28:32 54° SSW 22:38:23 10° ESE daylight
